Regional Weather Roundup
Issued by NWS Charleston, SC

Current Version | Previous Version | Graphics & Text | Print | Product List | Glossary Off
Versions: 1 2 3 4 5 6 7 8 9 10 11 12 13 14 15 16 17 18 19 20 21 22 23 24 25 26 27 28 29 30 31 32 33 34 35 36 37 38 39 40 41 42 43 44 45 46 47 48 49 50
000 ASUS42 KCHS 020210 RWRCHS REGIONAL WEATHER ROUNDUP NATIONAL WEATHER SERVICE CHARLESTON SC 1000 PM EDT WED OCT 01 2014 NOTE: "FAIR" INDICATES FEW OR NO CLOUDS BELOW 12,000 FEET WITH NO SIGNIFICANT WEATHER AND/OR OBSTRUCTIONS TO VISIBILITY. NOT ALL STATIONS ARE QUALITY CONTROLLED BY THE NATIONAL WEATHER SERVICE. USE DATA WITH CAUTION...ESPECIALLY DEWPOINT OBSERVATIONS. SCZ027-030-031-034>040-042>050-020300- ...SOUTH CAROLINA... CITY SKY/WX TMP DP RH WIND PRES REMARKS N CHARLESTON CLEAR 70 63 78 CALM 30.02R WATERFRONT PRK N/A 73 N/A N/A CALM N/A FORT JOHNSON NOT AVBL MOUNT PLEASANT FAIR 66 66 100 CALM 30.03R JOHNS ISLAND CLEAR 66 66 100 CALM 30.03R PINOPOLIS N/A 73 64 73 S3 29.95R MONCKS CORNER FAIR 68 68 100 CALM 30.03R SUMMERVILLE FAIR 68 68 100 CALM 30.03S BEAUFORT MCAS CLEAR 71 67 87 CALM 30.02R BEAUFORT ARPT FAIR 70 70 100 CALM 30.01S HILTON HEAD IS CLEAR 70 68 94 NE3 30.03R GEORGETOWN NOT AVBL WALTERBORO CLEAR 70 N/A N/A CALM 30.03S ORANGEBURG CLEAR 69 63 81 SE3 30.03R BARNWELL FAIR 70 64 83 CALM 30.03R AIKEN FAIR 70 64 83 SE3 30.05S MANNING FAIR 70 N/A N/A CALM 30.02S KINGSTREE NOT AVBL COLUMBIA PTCLDY 73 62 68 CALM 30.01R SUMTER CLEAR 69 64 84 SW2 30.01R FLORENCE CLOUDY 72 67 84 CALM 30.02R MYRTLE BEACH NOT AVBL N MYRTLE BEACH CLEAR 68 66 93 CALM 30.02S $$ GAZ063-065-086>088-099>101-113>116-118-119-134-136>141-150-020300- ...GEORGIA... CITY SKY/WX TMP DP RH WIND PRES REMARKS SAVANNAH ARPT PTCLDY 71 65 81 CALM 30.02R HUNTER AAF CLEAR 69 66 90 CALM 30.00R FORT STEWART CLEAR 67 65 92 CALM 30.01R STATESBORO NOT AVBL SYLVANIA CLEAR 70 68 94 CALM 30.03R CLAXTON FAIR 70 70 100 CALM 30.02R THOMSON CLEAR 69 69 100 CALM 30.06R AUGUSTA-BUSH CLEAR 65 64 97 CALM 30.00R AUGUSTA-DANIEL CLEAR 77 59 53 SE3 30.02R SWAINSBORO FAIR 73 68 83 SE6 30.03R VIDALIA CLEAR 72 68 88 SE6 30.02R ALMA CLEAR 71 67 87 E3 30.01R WAYCROSS CLEAR 74 72 93 CALM 30.02R JESUP CLOUDY 73 70 88 CALM 30.02R BRUNSWICK PTCLDY 70 68 94 CALM 30.02R SAINT SIMONS CLEAR 74 67 78 E7 30.01R $$ SCZ027-028-034-036>038-045-046-048>050-GAZ119-141-020300- ...LAKE AND SUPPLEMENTAL COASTAL OBSERVATIONS... STATION/POSITION TIME TEMP WIND PRES WAVE SWELL AIR SEA DIR/SP/G HT/PER HT/PER/DIR (UTC) (F) (DEG/KT/KT) (MB) (FT/S) (FT/S/D) UPR LAKE MARION NOT AVBL WINYAH BAY 0100 70 310/ 1 1016.0S LAKE MURRAY 0100 77 110/ 3/ 5 1015.6R ACE BASIN NERRS 0100 70 CALM 1016.0S FORT PULASKI 0100 76 70/ 11/ 12 1016.4R SAPELO ISLAND NOT AVBL $$ ANZ835-935-AMZ111-154-330-350-352-354-374-450-454-472-020300- ...C-MAN AND BUOY OBSERVATIONS... STATION/POSITION TIME TEMP WIND PRES WAVE SWELL AIR SEA DIR/SP/G HT/PER HT/PER/DIR (UTC) (F) (DEG/KT/KT) (MB) (FT/S) (FT/S/D) FOLLY BEACH CMAN 0100 75 100/ 8/ 8 1016.8R BUOY 41004 0200 78 81 70/ 10/ 12 1016.0R 2/ 5 2/ 5 BUOY 41008 0200 77 79 80/ 10/ 12 1016.1R 2/ 8 2/ 80/ 8 5E ST. MARYS GA NOT AVBL FRYING PAN BUOY NOT AVBL BUOY 41025 0200 71 10/ 16/ 17 1016.0R 2/ 8 2/ 70/ 8 CAPE LOOKOUT NC 0100 74 50/ 10/ 12 1016.4R BUOY 41002 0150 80 80 30/ 14/ 16 1015.0R 3/ 7 2/ 20/ 7 BUOY 41010 0200 81 85 60/ 10/ 12 1014.8R 3/ 7 3/ 30/ 7 BUOY 41012 NOT AVBL ST AUGUSTINE FL 0200 78 80/ 8/ 8 1016.2R CAPERS NEARSHORE 0100 75 140/ 6/ 8 N/A FRIPP NEARSHORE NOT AVBL $$

USA.gov is the U.S. government's official web portal to all federal, state and local government web resources and services.